Weather History for HTDA - December, 2012

Change the Weather History Date:

Friday, December 7, 2012

  Actual Average Record
Temperature  
Mean Temperature 80 °F -  
Max Temperature 90 °F 84 °F - ()
Min Temperature 75 °F 76 °F - ()
Cooling Degree Days 14    
Growing Degree Days 30 (Base 50)    
Moisture  
Dew Point 75 °F    
Average Humidity 87    
Maximum Humidity 100    
Minimum Humidity 66    
Precipitation  
Precipitation 0.02 in 0.14 in - ()
Sea Level Pressure  
Sea Level Pressure 29.91 in    
Wind  
Wind Speed 7 mph ()    
Max Wind Speed 92 mph    
Max Gust Speed -    
Visibility 10.3 miles    
Events Thunderstorm    
T = Trace of Precipitation, MM = Missing Value Source: Averaged Metar Reports

Daily Weather History Graph

Daily Weather History Graph

Search for Another Location

Airport or City:

Trip Planner

Search our weather history database for the weather conditions in past years. The results will help you decide how hot, cold, wet, or windy it might be!

Date:

Astronomy

Dec. 07, 2012 Rise Set
Actual Time 5:59 AM EAT 6:30 PM EAT
Civil Twilight 5:36 AM EAT 6:52 PM EAT
Nautical Twilight 5:10 AM EAT 7:19 PM EAT
Astronomical Twilight 4:43 AM EAT 7:46 PM EAT
Moon 12:28 AM EAT (12/7) 12:52 PM EAT (12/7)
Length of Visible Light 13h 15m
Length of Day
12h 30m
Last Quarter, 42% of the Moon is Illuminated
Dec 7
Last Quarter
Dec 13
New
Dec 20
First Quarter
Dec 28
Full
Jan 5
Last Quarter

Hourly Weather History & Observations

Time (EAT) Temp. Heat Index Dew Point Humidity Pressure Visibility Wind Dir Wind Speed Gust Speed Precip Events Conditions
12:00 AM 78.8 °F - 77.0 °F 94% 29.89 in 6.2 mi SSE 4.6 mph - N/A   Partly Cloudy
1:00 AM 78.8 °F - 77.0 °F 94% 29.89 in 6.2 mi SSE 4.6 mph - N/A   Partly Cloudy
2:00 AM 78.8 °F - 77.0 °F 94% 29.89 in 6.2 mi South 4.6 mph - N/A   Partly Cloudy
3:00 AM 77 °F - 76 °F 94% 29.88 in 19 mi SSW 4.6 mph - -   Partly Cloudy
3:00 AM 77.0 °F - 75.2 °F 94% 29.86 in 6.2 mi SSW 4.6 mph - N/A   Partly Cloudy
4:00 AM 77.0 °F - 75.2 °F 94% 29.89 in 6.2 mi SSW 5.8 mph - N/A   Partly Cloudy
5:00 AM 77.0 °F - 75.2 °F 94% 29.89 in 6.2 mi SW 4.6 mph - N/A   Partly Cloudy
6:00 AM 76 °F - 74 °F 94% 29.92 in 19 mi SSW 4.6 mph - -   Mostly Cloudy
6:00 AM 75.2 °F - 75.2 °F 100% 29.92 in 6.2 mi SSW 4.6 mph - N/A   Partly Cloudy
7:00 AM 75.2 °F - 73.4 °F 94% 29.92 in 6.2 mi Calm Calm - N/A   Partly Cloudy
9:00 AM 80 °F - 76 °F 84% 29.97 in 19 mi SSW 9.2 mph - -   Scattered Clouds
9:00 AM 80.6 °F 86.2 °F 75.2 °F 84% 29.95 in 6.2 mi SSW 9.2 mph - N/A   Mostly Cloudy
10:00 AM 77.0 °F - 73.4 °F 89% 29.98 in 6.2 mi South 11.5 mph - N/A   Mostly Cloudy
11:00 AM 80.6 °F 87.1 °F 77.0 °F 89% 29.95 in 6.2 mi South 5.8 mph - N/A   Partly Cloudy
12:00 PM 83 °F - 74 °F 69% 29.94 in 19 mi WSW 92.1 mph - -   Mostly Cloudy
3:00 PM 80 °F - 72 °F 71% 29.88 in 19 mi SSW 10.4 mph - - Thunderstorm Thunderstorm
5:00 PM 84.2 °F 90.9 °F 73.4 °F 70% 29.86 in 6.2 mi SSW 5.8 mph - N/A   Scattered Clouds
6:00 PM 84 °F - 74 °F 66%  in 19 mi SSW 4.6 mph - -   Scattered Clouds
6:00 PM 84.2 °F 92.3 °F 75.2 °F 74% 29.86 in 6.2 mi SSW 4.6 mph - N/A   Scattered Clouds
7:00 PM 80.6 °F 86.2 °F 75.2 °F 84% 29.89 in 6.2 mi South 4.6 mph - N/A   Scattered Clouds
8:00 PM 78.8 °F - 75.2 °F 89% 29.89 in 6.2 mi Calm Calm - N/A   Scattered Clouds
9:00 PM 78 °F - 76 °F 90% 29.91 in 19 mi South 4.6 mph - -   Partly Cloudy